This is the latest recevied weather packets stored in our database for station/object K4CRS-13. If no packets are shown the sender has not sent any weather packets the latest 10 day(s).
| Time | Temp. | Humidity | Pressure | Rain* | Wind** | Luminosity | Snow |
|---|---|---|---|---|---|---|---|
| 1787759749 | 33.89° C | 59% | 1051.9 hPa | 0 mm | - | 642 W/m² | - |
| 1787759445 | 33.89° C | 58% | 1051.8 hPa | 0 mm | - | 658 W/m² | - |
| 1787759140 | 33.89° C | 56% | 1051.6 hPa | 0 mm | - | 639 W/m² | - |
| 1787758839 | 33.33° C | 58% | 1051.7 hPa | 0 mm | - | 624 W/m² | - |
| 1787758535 | 33.89° C | 58% | 1051.6 hPa | 0 mm | - | 559 W/m² | - |
| 1787758234 | 33.89° C | 55% | 1051.5 hPa | 0 mm | - | 553 W/m² | - |
| 1787757929 | 33.33° C | 59% | 1051.6 hPa | 0 mm | - | 576 W/m² | - |
| 1787757626 | 33.33° C | 59% | 1051.5 hPa | 0 mm | - | 530 W/m² | - |
| 1787757325 | 32.78° C | 59% | 1051.6 hPa | 0 mm | - | 536 W/m² | - |
| 1787757024 | 32.78° C | 59% | 1051.7 hPa | 0 mm | - | 557 W/m² | - |
| 1787756719 | 32.22° C | 60% | 1051.6 hPa | 0 mm | - | 537 W/m² | - |
| 1787756414 | 31.67° C | 60% | 1051.9 hPa | 0 mm | - | 517 W/m² | - |
| 1787756108 | 31.11° C | 61% | 1051.9 hPa | 0 mm | - | 492 W/m² | - |
| 1787755803 | 31.11° C | 62% | 1051.9 hPa | 0 mm | - | 485 W/m² | - |
| 1787755502 | 30.56° C | 64% | 1052.1 hPa | 0 mm | - | 477 W/m² | - |
| 1787755197 | 30° C | 64% | 1052.2 hPa | 0 mm | - | 378 W/m² | - |
| 1787754890 | 29.44° C | 64% | 1052.2 hPa | 0 mm | - | 384 W/m² | - |
| 1787754584 | 30° C | 64% | 1052.1 hPa | 0 mm | - | 304 W/m² | - |
| 1787754283 | 30.56° C | 65% | 1052.1 hPa | 0 mm | - | 345 W/m² | - |
| 1787753978 | 30° C | 65% | 1052.1 hPa | 0 mm | - | 316 W/m² | - |
| 1787753677 | 29.44° C | 70% | 1052.1 hPa | 0 mm | - | 429 W/m² | - |
| 1787753376 | 28.89° C | 68% | 1052.2 hPa | 0 mm | - | 377 W/m² | - |
| 1787753076 | 29.44° C | 69% | 1052.3 hPa | 0 mm | - | 208 W/m² | - |
| 1787752775 | 29.44° C | 69% | 1052.1 hPa | 0 mm | - | 219 W/m² | - |
| 1787752471 | 28.89° C | 69% | 1052.2 hPa | 0 mm | - | 214 W/m² | - |
* Rain latest hour (hover to see other rain measurements)
** Current wind speed in m/s (hover to see current wind gust speed)